MASCOMA R @ W CANAAN: From 06/27/2020 16:00 to 07/11/2020 22:00

Date STAGE [FT] FLOW [CFS] PRECIPITATION INCREMENT [IN] AIR TEMPERATURE [DEGF]
07/11/2020 17:00 0.72 16.6 0.00 85.8
07/11/2020 16:00 0.72 16.6 0.00 86.0
07/11/2020 15:00 0.72 16.6 0.00 85.7
07/11/2020 14:00 0.72 16.6 0.00 87.8
07/11/2020 13:00 0.71 16.2 0.00 86.7
07/11/2020 12:00 0.71 16.2 0.00 85.9
07/11/2020 11:00 0.71 16.2 0.00 85.3
07/11/2020 10:00 0.71 16.2 0.00 84.5
07/11/2020 09:00 0.71 16.2 0.00 77.4
07/11/2020 08:00 0.71 16.2 0.00 75.6
07/11/2020 07:00 0.71 16.2 0.00 72.0
07/11/2020 06:00 0.70 15.7 0.01 71.1
07/11/2020 05:00 0.70 15.7 0.03 70.8
07/11/2020 04:00 0.69 15.2 0.01 71.0
07/11/2020 03:00 0.69 15.2 0.03 70.6
07/11/2020 02:00 0.69 15.2 0.04 69.9
07/11/2020 01:00 0.69 15.2 0.02 70.0
07/11/2020 00:00 0.70 15.7 0.01 70.0
07/10/2020 23:00 0.71 16.2 0.02 70.6
07/10/2020 22:00 0.71 16.2 0.00 70.9
07/10/2020 21:00 0.71 16.2 0.00 71.0
07/10/2020 20:00 0.71 16.2 0.00 70.9
07/10/2020 19:00 0.71 16.2 0.00 72.4
07/10/2020 18:00 0.71 16.2 0.00 72.3
07/10/2020 17:00 0.71 16.2 0.00 71.9
07/10/2020 16:00 0.71 16.2 0.00 75.1
07/10/2020 15:00 0.71 16.2 0.00 77.1
07/10/2020 14:00 0.71 16.2 0.00 79.4
07/10/2020 13:00 0.71 16.2 0.00 80.7
07/10/2020 12:00 0.71 16.2 0.00 82.3
07/10/2020 11:00 0.71 16.2 0.00 87.0
07/10/2020 10:00 0.71 16.2 0.00 84.6
07/10/2020 09:00 0.71 16.2 0.00 85.2
07/10/2020 08:00 0.71 16.2 0.00 83.1
07/10/2020 07:00 0.72 16.6 0.00 81.0
07/10/2020 06:00 0.72 16.6 0.00 77.9
07/10/2020 05:00 0.72 16.6 0.00 74.9
07/10/2020 04:00 0.72 16.6 0.00 72.0
07/10/2020 03:00 0.72 16.6 0.00 68.4
07/10/2020 02:00 0.73 17.1 0.00 66.3
07/10/2020 01:00 0.73 17.1 0.00 66.2
07/10/2020 00:00 0.74 17.6 0.00 67.3
07/09/2020 23:00 0.74 17.6 0.00 67.7
07/09/2020 22:00 0.75 18.1 0.00 68.6
07/09/2020 21:00 0.75 18.1 0.00 69.8
07/09/2020 20:00 0.75 18.1 0.00 70.8
07/09/2020 19:00 0.75 18.1 0.00 71.9
07/09/2020 18:00 0.75 18.1 0.00 73.1
07/09/2020 17:00 0.75 18.1 0.00 75.3
07/09/2020 16:00 0.75 18.1 0.00 78.4
07/09/2020 15:00 0.75 18.1 0.00 81.7
07/09/2020 14:00 0.75 18.1 0.00 90.0
07/09/2020 13:00 0.75 18.1 0.00 93.1
07/09/2020 12:00 0.75 18.1 0.00 91.5
07/09/2020 11:00 0.75 18.1 0.00 90.3
07/09/2020 10:00 0.75 18.1 0.00 87.1
07/09/2020 09:00 0.76 18.5 0.00 86.3
07/09/2020 08:00 0.76 18.5 0.00 82.7
07/09/2020 07:00 0.76 18.5 0.00 77.5
07/09/2020 06:00 0.76 18.5 0.00 72.5
07/09/2020 05:00 0.76 18.5 0.00 69.5
07/09/2020 04:00 0.76 18.5 0.00 67.7
07/09/2020 03:00 0.77 19.1 0.00 66.1
07/09/2020 02:00 0.77 19.1 0.00 64.9
07/09/2020 01:00 0.77 19.1 0.00 64.7
07/09/2020 00:00 0.78 19.6 0.00 64.5
07/08/2020 23:00 0.78 19.6 0.00 64.5
07/08/2020 22:00 0.78 19.6 0.00 64.7
07/08/2020 21:00 0.78 19.6 0.00 65.4
07/08/2020 20:00 0.78 19.6 0.00 66.7
07/08/2020 19:00 0.78 19.6 0.00 68.0
07/08/2020 18:00 0.78 19.6 0.00 69.5
07/08/2020 17:00 0.78 19.6 0.00 73.9
07/08/2020 16:00 0.78 19.6 0.00 74.6
07/08/2020 15:00 0.78 19.6 0.00 76.2
07/08/2020 14:00 0.78 19.6 0.00 79.8
07/08/2020 13:00 0.78 19.6 0.00 80.7
07/08/2020 12:00 0.78 19.6 0.00 77.4
07/08/2020 11:00 0.77 19.1 0.00 83.5
07/08/2020 10:00 0.77 19.1 0.00 84.5
07/08/2020 09:00 0.77 19.1 0.00 79.7
07/08/2020 08:00 0.77 19.1 0.00 79.4
07/08/2020 07:00 0.77 19.1 0.00 75.8
07/08/2020 06:00 0.77 19.1 0.00 75.1
07/08/2020 05:00 0.78 19.6 0.00 72.5
07/08/2020 04:00 0.78 19.6 0.00 70.6
07/08/2020 03:00 0.78 19.6 0.00 69.2
07/08/2020 02:00 0.79 20.1 0.00 68.0
07/08/2020 01:00 0.80 20.6 0.00 67.4
07/08/2020 00:00 0.80 20.6 0.00 67.8
07/07/2020 23:00 0.81 21.1 0.00 67.4
07/07/2020 22:00 0.83 22.3 0.00 66.8
07/07/2020 21:00 0.83 22.3 0.00 67.3
07/07/2020 20:00 0.84 22.8 0.00 69.3
07/07/2020 19:00 0.84 22.8 0.00 70.4
07/07/2020 18:00 0.85 23.4 0.00 75.6
07/07/2020 17:00 0.85 23.4 0.00 76.3
07/07/2020 16:00 0.85 23.4 0.00 77.5
07/07/2020 15:00 0.85 23.4 0.00 83.0
07/07/2020 14:00 0.85 23.4 0.00 83.5
07/07/2020 13:00 0.85 23.4 0.00 80.9
07/07/2020 12:00 0.85 23.4 0.00 80.6
07/07/2020 11:00 0.85 23.4 0.00 80.0
07/07/2020 10:00 0.85 23.4 0.00 80.1
07/07/2020 09:00 0.85 23.4 0.00 80.1
07/07/2020 08:00 0.85 23.4 0.00 74.9
07/07/2020 07:00 0.85 23.4 0.00 74.6
07/07/2020 06:00 0.85 23.4 0.00 69.0
07/07/2020 05:00 0.85 23.4 0.00 68.3
07/07/2020 04:00 0.86 24.0 0.00 63.4
07/07/2020 03:00 0.86 24.0 0.00 60.6
07/07/2020 02:00 0.87 24.6 0.00 58.9
07/07/2020 01:00 0.87 24.6 0.00 58.3
07/07/2020 00:00 0.88 25.2 0.00 57.6
07/06/2020 23:00 0.88 25.2 0.00 55.9
07/06/2020 22:00 0.89 25.8 0.00 56.0
07/06/2020 21:00 0.90 26.4 0.00 56.8
07/06/2020 20:00 0.91 27.0 0.00 58.6
07/06/2020 19:00 0.92 27.7 0.00 61.0
07/06/2020 18:00 0.92 27.7 0.00 61.4
07/06/2020 17:00 0.93 28.3 0.00 64.2
07/06/2020 16:00 0.93 28.3 0.00 68.0
07/06/2020 15:00 0.94 28.9 0.00 72.2
07/06/2020 14:00 0.94 28.9 0.00 83.6
07/06/2020 13:00 0.94 28.9 0.00 85.0
07/06/2020 12:00 0.94 28.9 0.00 81.2
07/06/2020 11:00 0.94 28.9 0.00 77.6
07/06/2020 10:00 0.94 28.9 0.00 78.8
07/06/2020 09:00 0.94 28.9 0.00 78.3
07/06/2020 08:00 0.94 28.9 0.00 75.6
07/06/2020 07:00 0.94 28.9 0.00 72.2
07/06/2020 06:00 0.94 28.9 0.00 68.2
07/06/2020 05:00 0.94 28.9 0.00 64.3
07/06/2020 04:00 0.95 29.6 0.00 61.8
07/06/2020 03:00 0.95 29.6 0.00 60.9
07/06/2020 02:00 0.95 29.6 0.00 60.5
07/06/2020 01:00 0.95 29.6 0.00 60.6
07/06/2020 00:00 0.96 30.3 0.00 61.0
07/05/2020 23:00 0.96 30.3 0.00 61.5
07/05/2020 22:00 0.96 30.3 0.00 61.4
07/05/2020 21:00 0.97 30.9 0.00 62.1
07/05/2020 20:00 0.98 31.6 0.00 62.8
07/05/2020 19:00 0.98 31.6 0.00 63.8
07/05/2020 18:00 0.99 32.3 0.00 64.5
07/05/2020 17:00 1.00 33.0 0.00 65.7
07/05/2020 16:00 1.01 33.7 0.01 68.9
07/05/2020 15:00 1.01 33.7 0.00 74.3
07/05/2020 14:00 1.01 33.7 0.00 78.6
07/05/2020 13:00 1.02 34.4 0.00 80.6
07/05/2020 12:00 1.02 34.4 0.00 84.2
07/05/2020 11:00 1.02 34.4 0.00 83.3
07/05/2020 10:00 1.02 34.4 0.00 80.7
07/05/2020 09:00 1.03 35.1 0.00 80.3
07/05/2020 08:00 1.03 35.1 0.00 78.8
07/05/2020 07:00 1.03 35.1 0.00 76.5
07/05/2020 06:00 1.03 35.1 0.00 71.4
07/05/2020 05:00 1.03 35.1 0.00 66.3
07/05/2020 04:00 1.04 35.9 0.00 61.1
07/05/2020 03:00 1.04 35.9 0.00 59.2
07/05/2020 02:00 1.04 35.9 0.00 57.7
07/05/2020 01:00 1.05 36.6 0.00 57.2
07/05/2020 00:00 1.05 36.6 0.00 57.2
07/04/2020 23:00 1.05 36.6 0.00 57.2
07/04/2020 22:00 1.06 37.3 0.00 57.1
07/04/2020 21:00 1.07 38.1 0.00 57.2
07/04/2020 20:00 1.08 38.9 0.00 57.9
07/04/2020 19:00 1.09 39.6 0.00 59.8
07/04/2020 18:00 1.10 40.4 0.00 61.9
07/04/2020 17:00 1.10 40.4 0.00 65.1
07/04/2020 16:00 1.11 41.2 0.00 70.1
07/04/2020 15:00 1.12 42.0 0.00 75.8
07/04/2020 14:00 1.12 42.0 0.00 83.9
07/04/2020 13:00 1.12 42.0 0.00 84.8
07/04/2020 12:00 1.13 42.8 0.00 82.9
07/04/2020 11:00 1.13 42.8 0.00 83.8
07/04/2020 10:00 1.13 42.8 0.00 82.8
07/04/2020 09:00 1.13 42.8 0.00 80.8
07/04/2020 08:00 1.13 42.8 0.00 77.7
07/04/2020 07:00 1.14 43.6 0.00 73.0
07/04/2020 06:00 1.14 43.6 0.00 68.6
07/04/2020 05:00 1.14 43.6 0.00 66.7
07/04/2020 04:00 1.14 43.6 0.00 65.3
07/04/2020 03:00 1.15 44.4 0.00 63.6
07/04/2020 02:00 1.15 44.4 0.00 62.9
07/04/2020 01:00 1.16 45.3 0.00 62.6
07/04/2020 00:00 1.17 46.1 0.00 62.5
07/03/2020 23:00 1.18 47.0 0.00 62.5
07/03/2020 22:00 1.18 47.0 0.00 62.3
07/03/2020 21:00 1.19 47.8 0.00 63.5
07/03/2020 20:00 1.20 48.7 0.00 64.0
07/03/2020 19:00 1.21 49.6 0.00 64.4
07/03/2020 18:00 1.22 50.5 0.00 65.4
07/03/2020 17:00 1.22 50.5 0.00 66.9
07/03/2020 16:00 1.23 51.4 0.00 67.6
07/03/2020 15:00 1.23 51.4 0.00 68.9
07/03/2020 14:00 1.24 52.3 0.00 70.8
07/03/2020 13:00 1.26 54.1 0.00 69.4
07/03/2020 12:00 1.28 56.0 0.00 70.4
07/03/2020 11:00 1.29 56.9 0.00 73.4
07/03/2020 10:00 1.30 57.9 0.00 73.8
07/03/2020 09:00 1.31 58.9 0.00 74.0
07/03/2020 08:00 1.32 59.8 0.00 73.7
07/03/2020 07:00 1.33 60.8 0.00 75.7
07/03/2020 06:00 1.33 60.8 0.00 73.5
07/03/2020 05:00 1.34 61.8 0.00 72.8
07/03/2020 04:00 1.35 62.8 0.00 71.1
07/03/2020 03:00 1.40 68.0 0.00 67.8
07/03/2020 02:00 1.41 69.1 0.00 67.0
07/03/2020 01:00 1.41 69.1 0.00 66.7
07/03/2020 00:00 1.42 70.3 0.00 66.7
07/02/2020 23:00 1.43 71.5 0.00 66.8
07/02/2020 22:00 1.44 72.7 0.00 67.2
07/02/2020 21:00 1.45 73.9 0.00 68.2
07/02/2020 20:00 1.47 76.3 0.00 69.1
07/02/2020 19:00 1.50 80.0 0.00 70.1
07/02/2020 18:00 1.53 83.6 0.00 70.7
07/02/2020 17:00 1.55 86.2 0.00 72.0
07/02/2020 16:00 1.57 88.8 0.00 74.0
07/02/2020 15:00 1.60 93.0 0.00 75.7
07/02/2020 14:00 1.62 95.7 0.00 83.6
07/02/2020 13:00 1.64 98.5 0.00 77.2
07/02/2020 12:00 1.66 101.3 0.00 85.1
07/02/2020 11:00 1.69 105.6 0.00 85.7
07/02/2020 10:00 1.71 108.5 0.00 83.7
07/02/2020 09:00 1.73 111.4 0.00 80.7
07/02/2020 08:00 1.76 115.9 0.00 77.0
07/02/2020 07:00 1.79 120.5 0.00 73.3
07/02/2020 06:00 1.82 125.1 0.00 68.7
07/02/2020 05:00 1.86 131.5 0.00 66.0
07/02/2020 04:00 1.89 136.4 0.00 64.3
07/02/2020 03:00 1.93 143.0 0.00 62.9
07/02/2020 02:00 1.97 149.8 0.00 62.1
07/02/2020 01:00 2.02 158.3 0.00 62.0
07/02/2020 00:00 2.06 165.1 0.00 61.9
07/01/2020 23:00 2.11 173.9 0.00 61.8
07/01/2020 22:00 2.16 183.3 0.00 62.0
07/01/2020 21:00 2.21 192.9 0.00 62.3
07/01/2020 20:00 2.26 202.3 0.00 62.4
07/01/2020 19:00 2.31 212.0 0.00 63.3
07/01/2020 18:00 2.35 219.9 0.00 64.2
07/01/2020 17:00 2.38 225.9 0.00 65.7
07/01/2020 16:00 2.39 228.0 0.00 67.4
07/01/2020 15:00 2.37 223.9 0.00 67.6
07/01/2020 14:00 2.35 219.9 0.00 71.4
07/01/2020 13:00 2.36 221.9 0.00 74.7
07/01/2020 12:00 2.36 221.9 0.01 67.6
07/01/2020 11:00 2.35 219.9 0.03 66.1
07/01/2020 10:00 2.32 213.9 0.19 67.5
07/01/2020 09:00 2.27 204.2 0.16 69.2
07/01/2020 08:00 2.20 191.0 0.00 69.5
07/01/2020 07:00 2.11 173.9 0.00 68.7
07/01/2020 06:00 1.96 148.1 0.00 67.0
07/01/2020 05:00 1.75 114.4 0.01 64.8
07/01/2020 04:00 1.56 87.5 0.00 63.8
07/01/2020 03:00 1.38 65.9 0.00 63.0
07/01/2020 02:00 1.33 60.8 0.00 61.9
07/01/2020 01:00 1.27 55.0 0.00 61.5
07/01/2020 00:00 1.26 54.1 0.01 61.6
06/30/2020 23:00 1.25 53.2 0.10 62.0
06/30/2020 22:00 1.24 52.3 0.16 61.9
06/30/2020 21:00 1.24 52.3 0.07 61.6
06/30/2020 20:00 1.24 52.3 0.00 61.6
06/30/2020 19:00 1.25 53.2 0.00 61.6
06/30/2020 18:00 1.25 53.2 0.00 61.7
06/30/2020 17:00 1.25 53.2 0.00 62.8
06/30/2020 16:00 1.26 54.1 0.00 64.8
06/30/2020 15:00 1.27 55.0 0.00 66.0
06/30/2020 14:00 1.29 56.9 0.00 67.3
06/30/2020 13:00 1.30 57.9 0.00 70.4
06/30/2020 12:00 1.32 59.8 0.00 71.3
06/30/2020 11:00 1.33 60.8 0.00 69.3
06/30/2020 10:00 1.34 61.8 0.00 70.6
06/30/2020 09:00 1.35 62.8 0.01 71.2
06/30/2020 08:00 1.35 62.8 0.00 68.6
06/30/2020 07:00 1.35 62.8 0.00 65.2
06/30/2020 06:00 1.35 62.8 0.00 65.1
06/30/2020 05:00 1.35 62.8 0.00 64.2
06/30/2020 04:00 1.34 61.8 0.00 63.3
06/30/2020 03:00 1.34 61.8 0.00 62.3
06/30/2020 02:00 1.32 59.8 0.00 61.6
06/30/2020 01:00 1.28 56.0 0.00 61.2
06/30/2020 00:00 1.23 51.4 0.00 61.3
06/29/2020 23:00 1.19 47.8 0.01 61.3
06/29/2020 22:00 1.14 43.6 0.00 61.1
06/29/2020 21:00 1.09 39.6 0.01 61.3
06/29/2020 20:00 1.05 36.6 0.01 61.6
06/29/2020 19:00 1.03 35.1 0.02 62.4
06/29/2020 18:00 1.00 33.0 0.02 62.9
06/29/2020 17:00 0.96 30.3 0.01 63.4
06/29/2020 16:00 0.91 27.0 0.00 63.9
06/29/2020 15:00 0.88 25.2 0.00 64.5
06/29/2020 14:00 0.84 22.8 0.00 65.3
06/29/2020 13:00 0.81 21.1 0.01 64.1
06/29/2020 12:00 0.78 19.6 0.10 64.4
06/29/2020 11:00 0.76 18.5 0.07 65.7
06/29/2020 10:00 0.75 18.1 0.29 64.5
06/29/2020 09:00 0.72 16.6 0.35 64.8
06/29/2020 08:00 0.69 15.2 0.00 67.8
06/29/2020 07:00 0.68 14.8 0.01 68.3
06/29/2020 06:00 0.67 14.4 0.00 66.2
06/29/2020 05:00 0.67 14.4 0.00 65.9
06/29/2020 04:00 0.66 13.9 0.01 64.5
06/29/2020 03:00 0.66 13.9 0.01 63.1
06/29/2020 02:00 0.66 13.9 0.00 63.0
06/29/2020 01:00 0.66 13.9 0.00 62.7
06/29/2020 00:00 0.66 13.9 0.00 63.2
06/28/2020 23:00 0.66 13.9 0.01 63.7
06/28/2020 22:00 0.66 13.9 0.22 64.0
06/28/2020 21:00 0.63 12.7 0.00 64.6
06/28/2020 20:00 0.63 12.7 0.00 64.6
06/28/2020 19:00 0.62 12.3 0.00 64.6
06/28/2020 18:00 0.61 11.9 0.00 65.8
06/28/2020 17:00 0.61 11.9 0.00 67.8
06/28/2020 16:00 0.61 11.9 0.00 69.0
06/28/2020 15:00 0.61 11.9 0.00 70.3
06/28/2020 14:00 0.61 11.9 0.00 72.0
06/28/2020 13:00 0.61 11.9 0.00 70.9
06/28/2020 12:00 0.61 11.9 0.01 68.9
06/28/2020 11:00 0.61 11.9 0.04 68.6
06/28/2020 10:00 0.60 11.5 0.00 76.1
06/28/2020 09:00 0.60 11.5 0.00 77.3
06/28/2020 08:00 0.60 11.5 0.00 73.6
06/28/2020 07:00 0.60 11.5 0.00 72.6
06/28/2020 06:00 0.60 11.5 0.00 70.7
06/28/2020 05:00 0.60 11.5 0.00 68.2
06/28/2020 04:00 0.60 11.5 0.00 61.9
06/28/2020 03:00 0.60 11.5 0.00 57.6
06/28/2020 02:00 0.61 11.9 0.00 55.9
06/28/2020 01:00 0.62 12.3 0.00 60.6
06/28/2020 00:00 0.63 12.7 0.00 62.4
06/27/2020 23:00 0.63 12.7 0.00 62.8
06/27/2020 22:00 0.63 12.7 0.00 63.4
06/27/2020 21:00 0.63 12.7 0.00 65.7
06/27/2020 20:00 0.63 12.7 0.00 66.3
06/27/2020 19:00 0.63 12.7 0.00 66.5
06/27/2020 18:00 0.63 12.7 0.00 68.7
06/27/2020 17:00 -- -- -- --
06/27/2020 16:00 -- -- -- --